| time (UTC) | temp F | wind direction | speed knots | gust knots | rain 1hr in | rain 24hr in | rain mn in | humidity % | barometer mb |
| 20260510180048 | 90 | 261 | 1.7 | 5.2 | 0.00 | 0.00 | 0.00 | 58 | 1013.5 |
| 20260510175038 | 89 | 169 | 1.7 | 3.5 | 0.00 | 0.00 | 0.00 | 60 | 1013.6 |
| 20260510174027 | 89 | 356 | 0.9 | 2.6 | 0.00 | 0.00 | 0.00 | 59 | 1013.9 |
| 20260510173017 | 89 | 259 | 2.6 | 5.2 | 0.00 | 0.00 | 0.00 | 60 | 1014.0 |
| 20260510172108 | 88 | 318 | 1.7 | 5.2 | 0.00 | 0.00 | 0.00 | 62 | 1014.2 |
| 20260510171058 | 88 | 90 | 0.9 | 2.6 | 0.00 | 0.00 | 0.00 | 64 | 1014.3 |
| 20260510170108 | 88 | 153 | 1.7 | 3.5 | 0.00 | 0.00 | 0.00 | 62 | 1014.4 |
| 20260510165038 | 87 | 256 | 1.7 | 6.1 | 0.00 | 0.00 | 0.00 | 64 | 1014.4 |
| 20260510164028 | 88 | 170 | 1.7 | 3.5 | 0.00 | 0.00 | 0.00 | 63 | 1014.5 |
| 20260510163018 | 87 | 272 | 0.9 | 2.6 | 0.00 | 0.00 | 0.00 | 65 | 1014.6 |
| 20260510162109 | 86 | 267 | 0.9 | 5.2 | 0.00 | 0.00 | 0.00 | 69 | 1014.7 |
| 20260510161059 | 86 | 226 | 0.9 | 3.5 | 0.00 | 0.00 | 0.00 | 68 | 1014.8 |
| 20260510160049 | 85 | 336 | 0.9 | 3.5 | 0.00 | 0.00 | 0.00 | 69 | 1014.9 |
| 20260510155039 | 83 | 318 | 0.0 | 3.5 | 0.00 | 0.00 | 0.00 | 73 | 1015.0 |
| 20260510154029 | 84 | 289 | 1.7 | 3.5 | 0.00 | 0.00 | 0.00 | 70 | 1015.2 |
| 20260510153019 | 83 | 181 | 0.9 | 2.6 | 0.00 | 0.00 | 0.00 | 74 | 1015.2 |
| 20260510152110 | 82 | 335 | 0.0 | 1.7 | 0.00 | 0.00 | 0.00 | 76 | 1015.2 |
| 20260510151100 | 82 | 233 | 0.0 | 2.6 | 0.00 | 0.00 | 0.00 | 75 | 1015.2 |
| 20260510150050 | 83 | 16 | 0.0 | 2.6 | 0.00 | 0.00 | 0.00 | 77 | 1015.2 |
| 20260510145120 | 82 | 42 | 0.9 | 3.5 | 0.00 | 0.00 | 0.00 | 78 | 1015.0 |
| 20260510144030 | 81 | 151 | 0.9 | 3.5 | 0.00 | 0.00 | 0.00 | 79 | 1015.0 |
| 20260510143020 | 79 | 253 | 0.9 | 3.5 | 0.00 | 0.00 | 0.00 | 82 | 1015.1 |
| 20260510142111 | 78 | 181 | 0.0 | 2.6 | 0.00 | 0.00 | 0.00 | 85 | 1015.0 |
| 20260510141120 | 78 | 73 | 1.7 | 5.2 | 0.00 | 0.00 | 0.00 | 85 | 1015.0 |
| 20260510140051 | 77 | 232 | 0.9 | 2.6 | 0.00 | 0.00 | 0.00 | 86 | 1014.9 |
| 20260510135040 | 77 | 19 | 0.9 | 2.6 | 0.00 | 0.00 | 0.00 | 87 | 1014.7 |
| 20260510134030 | 77 | 70 | 1.7 | 3.5 | 0.00 | 0.00 | 0.00 | 88 | 1014.7 |
| 20260510133020 | 76 | 68 | 0.9 | 2.6 | 0.00 | 0.00 | 0.00 | 90 | 1014.5 |
| 20260510132111 | 76 | 244 | 0.0 | 1.7 | 0.00 | 0.00 | 0.00 | 91 | 1014.4 |
| 20260510131101 | 76 | 67 | 0.0 | 0.9 | 0.00 | 0.00 | 0.00 | 92 | 1014.1 |
| 20260510130111 | 75 | 74 | 0.0 | 0.9 | 0.00 | 0.00 | 0.00 | 93 | 1014.0 |
| 20260510125041 | 75 | 33 | 0.0 | 1.7 | 0.00 | 0.00 | 0.00 | 94 | 1013.8 |
| 20260510124031 | 75 | 0.0 | 0.0 | 0.00 | 0.00 | 0.00 | 95 | 1013.7 | |
| 20260510123021 | 74 | 0.0 | 0.0 | 0.00 | 0.00 | 0.00 | 95 | 1013.3 | |
| 20260510122112 | 73 | 0.0 | 0.0 | 0.00 | 0.00 | 0.00 | 95 | 1013.1 | |
| 20260510121102 | 73 | 0.0 | 0.0 | 0.00 | 0.00 | 0.00 | 95 | 1012.8 | |
| 20260510120052 | 73 | 0.0 | 0.0 | 0.00 | 0.00 | 0.00 | 94 | 1012.6 | |
| 20260510115042 | 73 | 139 | 0.0 | 0.9 | 0.00 | 0.00 | 0.00 | 94 | 1012.3 |
| 20260510114032 | 74 | 186 | 0.0 | 1.7 | 0.00 | 0.00 | 0.00 | 94 | 1012.2 |
| 20260510113022 | 74 | 96 | 0.9 | 3.5 | 0.00 | 0.00 | 0.00 | 94 | 1012.0 |
| 20260510112113 | 74 | 215 | 0.0 | 1.7 | 0.00 | 0.00 | 0.00 | 94 | 1011.8 |
| 20260510111103 | 74 | 187 | 1.7 | 3.5 | 0.00 | 0.00 | 0.00 | 93 | 1011.6 |
| 20260510110053 | 74 | 204 | 0.0 | 1.7 | 0.00 | 0.00 | 0.00 | 93 | 1011.6 |
| 20260510105043 | 74 | 165 | 0.9 | 3.5 | 0.00 | 0.00 | 0.00 | 92 | 1011.5 |
| 20260510104033 | 74 | 156 | 0.9 | 2.6 | 0.00 | 0.00 | 0.00 | 92 | 1011.5 |
| 20260510103023 | 74 | 199 | 0.9 | 5.2 | 0.00 | 0.00 | 0.00 | 92 | 1011.6 |
| 20260510102134 | 74 | 115 | 0.9 | 3.5 | 0.00 | 0.00 | 0.00 | 92 | 1011.4 |
| 20260510101104 | 74 | 207 | 0.9 | 5.2 | 0.00 | 0.00 | 0.00 | 93 | 1011.4 |
| 20260510100053 | 74 | 19 | 1.7 | 3.5 | 0.00 | 0.00 | 0.00 | 93 | 1011.3 |
| 20260510095043 | 74 | 157 | 1.7 | 7.0 | 0.00 | 0.00 | 0.00 | 94 | 1011.2 |
| 20260510094033 | 74 | 200 | 1.7 | 5.2 | 0.00 | 0.00 | 0.00 | 94 | 1011.2 |
| 20260510093023 | 74 | 217 | 0.9 | 3.5 | 0.00 | 0.00 | 0.00 | 94 | 1011.1 |
| 20260510092114 | 74 | 156 | 0.9 | 5.2 | 0.00 | 0.00 | 0.00 | 94 | 1011.2 |
| 20260510091104 | 74 | 184 | 0.9 | 6.1 | 0.00 | 0.00 | 0.00 | 94 | 1011.3 |
| 20260510090054 | 74 | 153 | 0.9 | 3.5 | 0.00 | 0.00 | 0.00 | 94 | 1011.3 |
| 20260510085044 | 74 | 96 | 0.0 | 2.6 | 0.00 | 0.00 | 0.00 | 93 | 1011.5 |
| 20260510084114 | 74 | 167 | 0.9 | 2.6 | 0.00 | 0.00 | 0.00 | 93 | 1011.5 |
| 20260510083024 | 74 | 142 | 1.7 | 3.5 | 0.00 | 0.00 | 0.00 | 92 | 1011.3 |
| 20260510082115 | 75 | 141 | 0.9 | 3.5 | 0.00 | 0.00 | 0.00 | 92 | 1011.4 |
| 20260510081105 | 75 | 162 | 0.0 | 2.6 | 0.00 | 0.00 | 0.00 | 91 | 1011.5 |
| 20260510075045 | 75 | 125 | 0.0 | 1.7 | 0.00 | 0.00 | 0.00 | 91 | 1011.5 |
| 20260510074055 | 75 | 181 | 0.0 | 0.9 | 0.00 | 0.00 | 0.00 | 91 | 1011.5 |
| 20260510073045 | 75 | 255 | 0.0 | 0.9 | 0.00 | 0.00 | 0.00 | 90 | 1011.5 |
| 20260510072116 | 74 | 156 | 0.9 | 2.6 | 0.00 | 0.00 | 0.00 | 89 | 1011.3 |
| 20260510071106 | 74 | 189 | 0.0 | 0.9 | 0.00 | 0.00 | 0.00 | 89 | 1011.4 |
| 20260510070056 | 75 | 0.0 | 0.9 | 0.00 | 0.00 | 0.00 | 88 | 1011.5 | |
| 20260510065046 | 75 | 150 | 0.9 | 3.5 | 0.00 | 0.00 | 0.00 | 88 | 1011.5 |
| 20260510064036 | 75 | 199 | 0.9 | 3.5 | 0.00 | 0.00 | 0.00 | 88 | 1011.4 |
| 20260510063026 | 75 | 132 | 0.9 | 1.7 | 0.00 | 0.00 | 0.00 | 88 | 1011.4 |
| 20260510062036 | 75 | 183 | 0.9 | 2.6 | 0.00 | 0.00 | 0.00 | 88 | 1011.5 |
| 20260510061107 | 75 | 295 | 0.9 | 2.6 | 0.00 | 0.00 | 0.00 | 88 | 1011.6 |
| 20260510060056 | 75 | 270 | 0.0 | 1.7 | 0.00 | 0.00 | 0.00 | 87 | 1011.6 |
| 20260510055107 | 75 | 255 | 0.0 | 3.5 | 0.00 | 0.00 | 0.00 | 86 | 1011.6 |
| 20260510054137 | 76 | 220 | 0.9 | 0.9 | 0.00 | 0.00 | 0.00 | 85 | 1011.7 |
| 20260510053027 | 75 | 236 | 0.9 | 2.6 | 0.00 | 0.00 | 0.00 | 84 | 1011.9 |
| 20260510052016 | 75 | 201 | 0.0 | 1.7 | 0.00 | 0.00 | 0.00 | 83 | 1011.9 |
| 20260510051107 | 75 | 149 | 0.0 | 1.7 | 0.00 | 0.00 | 0.00 | 82 | 1011.7 |
| 20260510050117 | 75 | 166 | 0.0 | 1.7 | 0.00 | 0.00 | 0.00 | 82 | 1011.6 |
| 20260510045047 | 76 | 249 | 0.9 | 2.6 | 0.00 | 0.00 | 0.00 | 81 | 1011.7 |
| 20260510044037 | 76 | 200 | 0.0 | 0.9 | 0.00 | 0.00 | 0.00 | 79 | 1011.8 |
| 20260510043027 | 76 | 312 | 0.0 | 1.7 | 0.00 | 0.00 | 0.00 | 78 | 1011.8 |
| 20260510042017 | 76 | 252 | 0.9 | 1.7 | 0.00 | 0.00 | 0.00 | 77 | 1012.0 |
| 20260510041108 | 76 | 134 | 0.9 | 1.7 | 0.00 | 0.00 | 0.00 | 76 | 1011.8 |
| 20260510040058 | 77 | 246 | 0.0 | 1.7 | 0.00 | 0.00 | 0.00 | 75 | 1011.9 |
| 20260510035048 | 77 | 91 | 0.9 | 1.7 | 0.00 | 0.00 | 0.00 | 74 | 1011.9 |
| 20260510034118 | 77 | 147 | 0.9 | 3.5 | 0.00 | 0.00 | 0.00 | 73 | 1011.9 |
| 20260510033028 | 76 | 242 | 0.0 | 2.6 | 0.00 | 0.00 | 0.00 | 74 | 1012.1 |
| 20260510032018 | 75 | 265 | 0.9 | 1.7 | 0.00 | 0.00 | 0.00 | 76 | 1011.9 |
| 20260510031109 | 75 | 26 | 0.9 | 2.6 | 0.00 | 0.00 | 0.00 | 75 | 1011.7 |
| 20260510030119 | 75 | 341 | 0.0 | 1.7 | 0.00 | 0.00 | 0.00 | 74 | 1011.6 |
| 20260510025149 | 76 | 36 | 0.9 | 3.5 | 0.00 | 0.00 | 0.00 | 76 | 1011.2 |
| 20260510024039 | 77 | 191 | 0.0 | 1.7 | 0.00 | 0.00 | 0.00 | 74 | 1010.8 |
| 20260510023028 | 77 | 41 | 0.9 | 2.6 | 0.00 | 0.00 | 0.00 | 73 | 1010.6 |
| 20260510022018 | 77 | 187 | 0.0 | 1.7 | 0.00 | 0.00 | 0.00 | 71 | 1010.1 |
| 20260510021210 | 77 | 148 | 0.0 | 0.9 | 0.00 | 0.00 | 0.00 | 72 | 1009.9 |
| 20260510020059 | 77 | 0.0 | 0.0 | 0.00 | 0.00 | 0.00 | 70 | 1009.6 | |
| 20260510015049 | 77 | 0.0 | 0.9 | 0.00 | 0.00 | 0.00 | 68 | 1009.4 | |
| 20260510014040 | 78 | 0.0 | 0.0 | 0.00 | 0.00 | 0.00 | 66 | 1009.2 | |
| 20260510013029 | 78 | 0.0 | 0.9 | 0.00 | 0.00 | 0.00 | 63 | 1009.2 | |
| 20260510012059 | 79 | 107 | 0.0 | 3.5 | 0.00 | 0.00 | 0.00 | 61 | 1009.2 |
| 20260510011130 | 78 | 273 | 0.0 | 1.7 | 0.00 | 0.00 | 0.00 | 61 | 1009.2 |
| 20260510010100 | 78 | 85 | 0.0 | 0.9 | 0.00 | 0.00 | 0.00 | 62 | 1009.1 |
| 20260510005050 | 78 | 216 | 0.9 | 0.9 | 0.00 | 0.00 | 0.00 | 61 | 1008.6 |
| 20260510004040 | 78 | 182 | 1.7 | 6.1 | 0.00 | 0.00 | 0.00 | 60 | 1009.0 |
| 20260510003030 | 78 | 131 | 0.0 | 2.6 | 0.00 | 0.00 | 0.00 | 60 | 1009.0 |
| 20260510002020 | 77 | 180 | 0.9 | 2.6 | 0.00 | 0.00 | 0.00 | 63 | 1009.1 |
| 20260510001111 | 76 | 120 | 0.9 | 5.2 | 0.00 | 0.00 | 0.00 | 65 | 1009.4 |
| 20260509235051 | 83 | 172 | 2.6 | 8.7 | 0.00 | 0.00 | 0.00 | 60 | 1008.9 |
| 20260509234041 | 85 | 157 | 2.6 | 6.1 | 0.00 | 0.00 | 0.00 | 55 | 1008.6 |
| 20260509233031 | 88 | 181 | 0.9 | 5.2 | 0.00 | 0.00 | 0.00 | 61 | 1008.4 |
| 20260509232021 | 88 | 0.0 | 1.7 | 0.00 | 0.00 | 0.00 | 61 | 1008.2 | |
| 20260509231112 | 88 | 0.0 | 0.9 | 0.00 | 0.00 | 0.00 | 61 | 1008.5 | |
| 20260509225052 | 89 | 250 | 0.0 | 0.9 | 0.00 | 0.00 | 0.00 | 59 | 1008.1 |
| 20260509224042 | 89 | 303 | 0.0 | 0.9 | 0.00 | 0.00 | 0.00 | 60 | 1008.0 |
| 20260509223032 | 89 | 74 | 0.0 | 0.9 | 0.00 | 0.00 | 0.00 | 60 | 1008.2 |
| 20260509222022 | 89 | 308 | 0.0 | 1.7 | 0.00 | 0.00 | 0.00 | 57 | 1008.0 |
| 20260509221113 | 90 | 28 | 0.0 | 1.7 | 0.00 | 0.00 | 0.00 | 59 | 1008.0 |
| 20260509215052 | 89 | 83 | 0.0 | 1.7 | 0.00 | 0.00 | 0.00 | 58 | 1007.9 |
| 20260509214123 | 89 | 13 | 0.0 | 1.7 | 0.00 | 0.00 | 0.00 | 60 | 1008.0 |
| 20260509213032 | 91 | 85 | 0.9 | 3.5 | 0.00 | 0.00 | 0.00 | 59 | 1008.0 |
| 20260509212022 | 90 | 37 | 0.0 | 2.6 | 0.00 | 0.00 | 0.00 | 61 | 1008.1 |
| 20260509211113 | 90 | 33 | 0.9 | 1.7 | 0.00 | 0.00 | 0.00 | 61 | 1008.2 |
| 20260509205053 | 90 | 51 | 0.9 | 1.7 | 0.00 | 0.00 | 0.00 | 61 | 1008.6 |
| 20260509204043 | 90 | 206 | 0.0 | 2.6 | 0.00 | 0.00 | 0.00 | 60 | 1008.7 |
| 20260509203113 | 89 | 80 | 0.0 | 0.9 | 0.00 | 0.00 | 0.00 | 63 | 1008.8 |
| 20260509202043 | 89 | 320 | 0.9 | 2.6 | 0.00 | 0.00 | 0.00 | 64 | 1008.7 |
| 20260509201114 | 88 | 315 | 0.0 | 2.6 | 0.00 | 0.00 | 0.00 | 63 | 1008.9 |
| 20260509200124 | 88 | 27 | 0.0 | 1.7 | 0.00 | 0.00 | 0.00 | 66 | 1009.0 |
| 20260509195054 | 89 | 105 | 0.9 | 1.7 | 0.00 | 0.00 | 0.00 | 63 | 1009.2 |
| 20260509194104 | 89 | 237 | 0.9 | 3.5 | 0.00 | 0.00 | 0.00 | 63 | 1009.2 |
| 20260509193034 | 88 | 25 | 0.0 | 1.7 | 0.00 | 0.00 | 0.00 | 64 | 1009.4 |
| 20260509192024 | 89 | 304 | 0.0 | 1.7 | 0.00 | 0.00 | 0.00 | 63 | 1009.4 |
| 20260509191115 | 89 | 88 | 0.0 | 0.9 | 0.00 | 0.00 | 0.00 | 62 | 1009.4 |
| 20260509190125 | 89 | 47 | 0.0 | 0.9 | 0.00 | 0.00 | 0.00 | 62 | 1009.4 |
| 20260509185055 | 88 | 143 | 0.0 | 2.6 | 0.00 | 0.01 | 0.00 | 64 | 1009.6 |
| 20260509184045 | 87 | 127 | 0.9 | 2.6 | 0.00 | 0.01 | 0.00 | 65 | 1009.8 |
| 20260509183034 | 87 | 353 | 0.0 | 1.7 | 0.00 | 0.01 | 0.00 | 69 | 1009.8 |
| 20260509182044 | 87 | 313 | 0.9 | 1.7 | 0.00 | 0.01 | 0.00 | 65 | 1009.9 |
| 20260509181135 | 87 | 295 | 0.9 | 1.7 | 0.00 | 0.01 | 0.00 | 66 | 1010.2 |